EW1587 Weather Reports


Display with metric or nautical units.
time (UTC)temp
F
wind
direction
speed
MPH
gust
MPH
rain 1hr
in
rain 24hr
in
rain mn
in
humidity
%
barometer
mb
20260902000548 77 328 0.0 2.0 0.00 0.00 0.00 58 1012.2
20260902000151 78 337 0.0 1.0 0.00 0.00 0.00 58 1012.1
20260901235549 78 325 0.0 1.0 0.00 0.00 0.00 58 1012.2
20260901235049 78 332 0.0 1.0 0.00 0.00 0.00 57 1012.2
20260901234651 78 330 0.0 1.0 0.00 0.00 0.00 58 1012.2
20260901225040 80 290 2.0 5.0 0.00 0.00 0.00 55 1012.2
20260901224540 80 297 3.0 5.0 0.00 0.00 0.00 55 1012.2
20260901223537 80 287 3.0 8.0 0.00 0.00 0.00 55 1012.4
20260901223038 80 257 4.0 8.0 0.00 0.00 0.00 54 1012.4
20260901222537 80 291 4.0 7.0 0.00 0.00 0.00 55 1012.5
20260901222036 80 291 2.0 7.0 0.00 0.00 0.00 54 1012.4
20260901221602 80 278 3.0 6.0 0.00 0.00 0.00 55 1012.5
20260901221036 80 283 3.0 5.0 0.00 0.00 0.00 53 1012.4
20260901220535 81 295 2.0 4.0 0.00 0.00 0.00 52 1012.4
20260901220136 81 285 0.0 4.0 0.00 0.00 0.00 53 1012.2
20260901214512 82 295 0.0 1.0 0.00 0.00 0.00 48 1012.2
20260901214012 82 281 0.0 0.0 0.00 0.00 0.00 49 1012.1
20260901213513 83 291 0.0 1.0 0.00 0.00 0.00 51 1012.2
20260901213033 83 252 0.0 1.0 0.00 0.00 0.00 49 1012.3
20260901212511 84 283 0.0 2.0 0.00 0.00 0.00 48 1012.3
20260901212011 85 246 0.0 2.0 0.00 0.00 0.00 48 1012.3
20260901211519 85 315 0.0 0.0 0.00 0.00 0.00 47 1012.2
20260901211010 85 274 0.0 0.0 0.00 0.00 0.00 49 1012.1
20260901210510 85 274 0.0 1.0 0.00 0.00 0.00 45 1012.1
20260901210017 86 274 0.0 1.0 0.00 0.00 0.00 44 1012.2
20260901205510 86 311 0.0 1.0 0.00 0.00 0.00 44 1012.2
20260901205009 87 308 0.0 0.0 0.00 0.00 0.00 46 1012.2
20260901204510 87 308 0.0 0.0 0.00 0.00 0.00 45 1012.1
20260901204009 86 311 0.0 0.0 0.00 0.00 0.00 44 1012.1
20260901203511 86 311 0.0 0.0 0.00 0.00 0.00 42 1012.1
20260901203015 86 311 0.0 0.0 0.00 0.00 0.00 42 1012.1
20260901202508 86 311 0.0 1.0 0.00 0.00 0.00 43 1012.2
20260901202008 86 311 0.0 1.0 0.00 0.00 0.00 41 1012.2
20260901201509 86 156 0.0 1.0 0.00 0.00 0.00 41 1012.3
20260901201009 85 296 0.0 2.0 0.00 0.00 0.00 42 1012.5
20260901200510 85 280 0.0 2.0 0.00 0.00 0.00 40 1012.6
20260901200012 86 271 0.0 1.0 0.00 0.00 0.00 43 1012.8
20260901195507 85 278 0.0 5.0 0.00 0.00 0.00 39 1012.7
20260901195007 86 320 0.0 5.0 0.00 0.00 0.00 36 1012.7
20260901194506 87 295 1.0 4.0 0.00 0.00 0.00 38 1012.8
20260901194006 86 238 0.0 2.0 0.00 0.00 0.00 39 1012.7
20260901193507 85 304 0.0 5.0 0.00 0.00 0.00 37 1012.7
20260901193006 85 311 1.0 6.0 0.00 0.00 0.00 38 1012.7
20260901192504 87 290 2.0 6.0 0.00 0.00 0.00 35 1012.8
20260901192004 87 256 1.0 6.0 0.00 0.00 0.00 38 1012.8
20260901191503 87 294 0.0 1.0 0.00 0.00 0.00 37 1012.8
20260901191003 87 304 0.0 1.0 0.00 0.00 0.00 39 1012.8
20260901190501 88 307 0.0 1.0 0.00 0.00 0.00 39 1012.8
20260901190100 87 174 0.0 1.0 0.00 0.00 0.00 40 1012.8
20260901190003 86 305 0.0 1.0 0.00 0.00 0.00 40 1012.8
20260901185600 86 269 0.0 1.0 0.00 0.00 0.00 39 1012.8
20260901185059 86 113 0.0 2.0 0.00 0.00 0.00 38 1012.8
20260901184558 87 82 0.0 2.0 0.00 0.00 0.00 38 1012.8
20260901184058 87 63 0.0 1.0 0.00 0.00 0.00 39 1012.9
20260901183601 87 307 0.0 1.0 0.00 0.00 0.00 41 1012.8
20260901183056 87 242 0.0 1.0 0.00 0.00 0.00 44 1012.9
20260901182555 86 139 0.0 1.0 0.00 0.00 0.00 41 1012.9
20260901182053 85 323 0.0 1.0 0.00 0.00 0.00 41 1012.9
20260901181551 84 276 0.0 1.0 0.00 0.00 0.00 43 1013.0
20260901181050 84 295 0.0 1.0 0.00 0.00 0.00 44 1013.1
20260901180550 83 300 0.0 1.0 0.00 0.00 0.00 44 1013.2
20260901180049 83 286 0.0 1.0 0.00 0.00 0.00 45 1013.2
20260901175549 83 299 0.0 1.0 0.00 0.00 0.00 45 1013.3
20260901175048 83 293 0.0 1.0 0.00 0.00 0.00 49 1013.4
20260901174548 82 305 0.0 3.0 0.00 0.00 0.00 45 1013.5
20260901174049 83 290 0.0 3.0 0.00 0.00 0.00 45 1013.5
20260901173549 83 244 0.0 3.0 0.00 0.00 0.00 48 1013.5
20260901173048 83 302 0.0 3.0 0.00 0.00 0.00 47 1013.5
20260901172547 83 300 0.0 2.0 0.00 0.00 0.00 46 1013.6
20260901172047 83 291 0.0 4.0 0.00 0.00 0.00 47 1013.7
20260901171548 83 293 0.0 4.0 0.00 0.00 0.00 50 1013.9
20260901171048 83 295 0.0 2.0 0.00 0.00 0.00 50 1013.8
20260901170545 82 69 0.0 2.0 0.00 0.00 0.00 51 1013.8
20260901170048 82 56 0.0 4.0 0.00 0.00 0.00 49 1013.7
20260901165546 82 56 1.0 4.0 0.00 0.00 0.00 52 1013.7
20260901165042 81 252 0.0 1.0 0.00 0.00 0.00 54 1013.9
20260901164541 80 293 0.0 2.0 0.00 0.00 0.00 55 1013.9
20260901164039 79 341 0.0 2.0 0.00 0.00 0.00 57 1013.7
20260901163539 78 56 0.0 6.0 0.00 0.00 0.00 58 1013.7
20260901163038 78 34 2.0 6.0 0.00 0.00 0.00 57 1013.8
20260901162537 78 67 1.0 5.0 0.00 0.00 0.00 56 1013.8
20260901162038 78 22 0.0 3.0 0.00 0.00 0.00 58 1013.8
20260901161538 77 266 0.0 3.0 0.00 0.00 0.00 61 1013.8
20260901161034 76 57 0.0 5.0 0.00 0.00 0.00 65 1013.8
20260901160533 75 92 1.0 6.0 0.00 0.00 0.00 65 1013.8
20260901160036 75 64 3.0 7.0 0.00 0.00 0.00 66 1013.7
20260901155535 75 50 1.0 5.0 0.00 0.00 0.00 67 1013.7
20260901155034 74 64 2.0 5.0 0.00 0.00 0.00 66 1013.6
20260901154531 74 66 1.0 6.0 0.00 0.00 0.00 67 1013.8
20260901154032 74 69 0.0 6.0 0.00 0.00 0.00 70 1013.7
20260901153532 74 75 1.0 6.0 0.00 0.00 0.00 66 1013.7
20260901153039 75 75 0.0 2.0 0.00 0.00 0.00 66 1013.8
20260901152531 75 30 0.0 3.0 0.00 0.00 0.00 67 1013.8
20260901152030 76 58 1.0 4.0 0.00 0.00 0.00 66 1013.9
20260901151530 76 79 0.0 2.0 0.00 0.00 0.00 66 1014.0
20260901151028 75 314 0.0 3.0 0.00 0.00 0.00 69 1013.9
20260901150526 75 1 0.0 3.0 0.00 0.00 0.00 67 1013.9
20260901150026 75 30 0.0 4.0 0.00 0.00 0.00 68 1013.9
20260901145525 74 29 0.0 4.0 0.00 0.00 0.00 70 1013.9
20260901145024 74 72 0.0 3.0 0.00 0.00 0.00 74 1014.0
20260901144522 74 23 0.0 2.0 0.00 0.00 0.00 74 1014.0
20260901144022 74 13 0.0 2.0 0.00 0.00 0.00 74 1014.0
20260901143521 73 333 0.0 5.0 0.00 0.00 0.00 74 1013.9
20260901143049 73 330 1.0 5.0 0.00 0.00 0.00 75 1013.9
20260901142518 73 56 0.0 2.0 0.00 0.00 0.00 78 1013.8
20260901142008 72 266 0.0 3.0 0.00 0.00 0.00 79 1013.9
20260901141505 71 267 0.0 5.0 0.00 0.00 0.00 81 1013.9
20260901141007 70 323 2.0 6.0 0.00 0.00 0.00 81 1014.0
20260901140502 70 290 2.0 6.0 0.00 0.00 0.00 83 1014.0
20260901140001 69 312 1.0 6.0 0.00 0.00 0.00 85 1014.1
20260901135604 69 301 4.0 6.0 0.00 0.00 0.00 84 1014.1
20260901135102 68 302 3.0 6.0 0.00 0.00 0.00 87 1014.0
20260901134606 68 295 4.0 5.0 0.00 0.00 0.00 88 1014.0
20260901134056 68 294 0.0 3.0 0.00 0.00 0.00 92 1014.1
20260901133555 67 295 0.0 1.0 0.00 0.00 0.00 92 1014.1
20260901133054 67 253 0.0 1.0 0.00 0.00 0.00 94 1014.0
20260901132554 66 259 0.0 1.0 0.00 0.00 0.00 94 1014.1
20260901132053 65 277 0.0 1.0 0.00 0.00 0.00 94 1014.1
20260901131557 65 297 0.0 1.0 0.00 0.00 0.00 94 1014.0
20260901131051 65 300 0.0 1.0 0.00 0.00 0.00 94 1013.9
20260901130552 65 280 0.0 1.0 0.00 0.00 0.00 94 1013.7
20260901130049 65 252 0.0 3.0 0.00 0.00 0.00 95 1013.7
20260901125551 64 246 0.0 4.0 0.00 0.00 0.00 96 1013.6
20260901125049 64 276 1.0 4.0 0.00 0.00 0.00 97 1013.7
20260901124549 64 286 1.0 3.0 0.00 0.00 0.00 97 1013.7
20260901124047 63 301 0.0 0.0 0.00 0.00 0.00 97 1013.6
20260901123547 63 301 0.0 0.0 0.00 0.00 0.00 98 1013.5
20260901123048 63 295 0.0 1.0 0.00 0.00 0.00 98 1013.5
20260901122546 62 283 0.0 3.0 0.00 0.00 0.00 98 1013.5
20260901122044 62 293 2.0 3.0 0.00 0.00 0.00 98 1013.5
20260901121548 62 284 0.0 2.0 0.00 0.00 0.00 98 1013.5
20260901121044 62 240 0.0 5.0 0.00 0.00 0.00 99 1013.5
20260901120543 62 283 2.0 5.0 0.00 0.00 0.00 100 1013.3
20260901120045 61 286 1.0 3.0 0.00 0.00 0.00 100 1013.1
20260901115541 61 302 0.0 1.0 0.00 0.00 0.00 100 1013.1
20260901115041 61 294 0.0 0.0 0.00 0.00 0.00 99 1013.1
20260901114543 61 294 0.0 1.0 0.00 0.00 0.00 99 1013.0
20260901114038 61 294 0.0 1.0 0.00 0.00 0.00 100 1012.8
20260901113542 61 283 0.0 3.0 0.00 0.00 0.00 100 1012.8
20260901113038 61 297 0.0 3.0 0.00 0.00 0.00 100 1012.9
20260901112536 61 288 0.0 2.0 0.00 0.00 0.00 100 1012.8
20260901112038 61 253 0.0 3.0 0.00 0.00 0.00 100 1012.8
20260901111537 60 278 0.0 3.0 0.00 0.00 0.00 100 1012.7
20260901111033 60 284 0.0 1.0 0.00 0.00 0.00 99 1012.7
20260901110532 60 287 0.0 0.0 0.00 0.00 0.00 99 1012.7
20260901110034 60 290 0.0 0.0 0.00 0.00 0.00 99 1012.6
20260901105531 60 290 0.0 0.0 0.00 0.00 0.00 99 1012.6
20260901105033 61 290 0.0 1.0 0.00 0.00 0.00 99 1012.5
20260901104533 61 290 0.0 1.0 0.00 0.00 0.00 99 1012.5
20260901104029 61 273 0.0 0.0 0.00 0.00 0.00 99 1012.6
20260901103528 61 273 0.0 0.0 0.00 0.00 0.00 99 1012.7
20260901103027 61 298 0.0 0.0 0.00 0.00 0.00 99 1012.6
20260901102527 61 298 0.0 1.0 0.00 0.00 0.00 99 1012.5
20260901102026 61 300 0.0 1.0 0.00 0.00 0.00 99 1012.5
20260901101526 61 307 0.0 1.0 0.00 0.00 0.00 99 1012.5
20260901101025 61 298 0.0 2.0 0.00 0.00 0.00 100 1012.6
20260901100524 61 308 0.0 2.0 0.00 0.00 0.00 100 1012.5
20260901100024 61 248 0.0 1.0 0.00 0.00 0.00 99 1012.5
20260901095524 61 246 0.0 0.0 0.00 0.00 0.00 99 1012.5
20260901095025 61 236 0.0 1.0 0.00 0.00 0.00 99 1012.4
20260901094527 61 240 0.0 1.0 0.00 0.00 0.00 99 1012.2
20260901094023 61 240 0.0 0.0 0.00 0.00 0.00 99 1012.2
20260901093527 61 240 0.0 0.0 0.00 0.00 0.00 99 1012.2
20260901093022 61 243 0.0 0.0 0.00 0.00 0.00 99 1012.2
20260901092522 61 243 0.0 0.0 0.00 0.00 0.00 99 1012.1
20260901092024 61 243 0.0 0.0 0.00 0.00 0.00 99 1012.0
20260901091523 61 244 0.0 0.0 0.00 0.00 0.00 99 1012.0
20260901091020 61 242 0.0 0.0 0.00 0.00 0.00 98 1012.0
20260901090520 61 228 0.0 0.0 0.00 0.00 0.00 98 1012.0
20260901090021 61 228 0.0 0.0 0.00 0.00 0.00 98 1012.1
20260901085520 61 228 0.0 0.0 0.00 0.00 0.00 98 1012.0
20260901085020 61 226 0.0 0.0 0.00 0.00 0.00 98 1012.0
20260901084519 61 226 0.0 1.0 0.00 0.00 0.00 98 1011.9
20260901084020 61 227 0.0 2.0 0.00 0.00 0.00 98 1011.8
20260901083518 61 233 0.0 2.0 0.00 0.00 0.00 98 1011.9
20260901083023 61 242 0.0 1.0 0.00 0.00 0.00 98 1012.0
20260901082516 61 242 0.0 0.0 0.00 0.00 0.00 98 1012.0
20260901082018 61 219 0.0 0.0 0.00 0.00 0.00 98 1011.9
20260901081518 61 164 0.0 0.0 0.00 0.00 0.00 97 1011.9
20260901081015 61 162 0.0 0.0 0.00 0.00 0.00 97 1011.9
20260901080514 61 162 0.0 0.0 0.00 0.00 0.00 97 1012.0
20260901080013 61 162 0.0 0.0 0.00 0.00 0.00 97 1011.9
20260901075512 61 162 0.0 0.0 0.00 0.00 0.00 96 1011.9
20260901075012 61 162 0.0 0.0 0.00 0.00 0.00 96 1012.0
20260901074511 61 162 0.0 0.0 0.00 0.00 0.00 96 1012.0
20260901074010 62 162 0.0 0.0 0.00 0.00 0.00 96 1012.0
20260901073510 62 162 0.0 0.0 0.00 0.00 0.00 96 1011.9
20260901073009 62 162 0.0 0.0 0.00 0.00 0.00 96 1012.0
20260901072509 62 162 0.0 1.0 0.00 0.00 0.00 96 1012.0
20260901072007 62 18 0.0 1.0 0.00 0.00 0.00 96 1012.1
20260901071508 62 22 0.0 1.0 0.00 0.00 0.00 96 1012.2
20260901071008 62 22 0.0 1.0 0.00 0.00 0.00 96 1012.3
20260901070506 62 22 0.0 0.0 0.00 0.00 0.00 95 1012.3
20260901070011 62 22 0.0 0.0 0.00 0.00 0.00 94 1012.4
20260901065505 62 22 0.0 0.0 0.00 0.00 0.00 94 1012.5
20260901065008 63 22 0.0 0.0 0.00 0.00 0.00 94 1012.4
20260901064506 63 22 0.0 0.0 0.00 0.00 0.00 94 1012.4
20260901064004 63 22 0.0 0.0 0.00 0.00 0.00 93 1012.4
20260901063502 63 22 0.0 0.0 0.00 0.00 0.00 93 1012.5
20260901063001 63 22 0.0 0.0 0.00 0.00 0.00 93 1012.5
20260901062501 63 16 0.0 0.0 0.00 0.00 0.00 93 1012.5
20260901062059 64 16 0.0 0.0 0.00 0.00 0.00 93 1012.6
20260901061600 64 16 0.0 0.0 0.00 0.00 0.00 92 1012.6
20260901061057 64 16 0.0 0.0 0.00 0.00 0.00 92 1012.6
20260901060556 64 16 0.0 0.0 0.00 0.00 0.00 92 1012.5
20260901060055 64 302 0.0 0.0 0.00 0.00 0.00 91 1012.4
20260901055554 65 302 0.0 0.0 0.00 0.00 0.00 90 1012.4
20260901055053 65 302 0.0 0.0 0.00 0.00 0.00 89 1012.2
20260901054554 66 302 0.0 0.0 0.00 0.00 0.00 89 1012.3
20260901054051 66 302 0.0 0.0 0.00 0.00 0.00 89 1012.3
20260901053551 66 294 0.0 1.0 0.00 0.00 0.00 89 1012.3
20260901053051 66 285 0.0 1.0 0.00 0.00 0.00 89 1012.3
20260901052548 66 296 0.0 1.0 0.00 0.00 0.00 90 1012.4
20260901052047 66 309 0.0 0.0 0.00 0.00 0.00 90 1012.3
20260901051547 67 305 0.0 0.0 0.00 0.00 0.00 91 1012.2
20260901051048 67 304 0.0 0.0 0.00 0.00 0.00 91 1012.3
20260901050546 67 295 0.0 1.0 0.00 0.00 0.00 91 1012.2
20260901050045 67 295 0.0 1.0 0.00 0.00 0.00 91 1012.1
20260901045545 67 295 0.0 0.0 0.00 0.00 0.00 91 1012.0
20260901045044 67 295 0.0 0.0 0.00 0.00 0.00 91 1012.0
20260901044547 67 295 0.0 1.0 0.00 0.00 0.00 91 1012.0
20260901044044 67 297 0.0 3.0 0.00 0.00 0.00 91 1012.0
20260901043544 67 290 0.0 3.0 0.00 0.00 0.00 91 1012.0
20260901043044 67 284 0.0 0.0 0.00 0.00 0.00 91 1012.0
20260901042547 67 282 0.0 1.0 0.00 0.00 0.00 91 1011.9
20260901042042 67 281 0.0 1.0 0.00 0.00 0.00 90 1011.8
20260901041559 67 284 0.0 0.0 0.00 0.00 0.00 90 1011.8
20260901041041 67 297 0.0 0.0 0.00 0.00 0.00 89 1011.8
20260901040541 67 296 0.0 0.0 0.00 0.00 0.00 89 1011.8
20260901040041 67 296 0.0 0.0 0.00 0.00 0.00 88 1011.8
20260901035541 68 305 0.0 0.0 0.00 0.00 0.00 86 1011.7
20260901035040 68 303 0.0 0.0 0.00 0.00 0.00 85 1011.7
20260901034541 68 305 0.0 2.0 0.00 0.00 0.00 85 1011.8
20260901034043 68 305 0.0 2.0 0.00 0.00 0.00 86 1011.8
20260901033539 68 302 0.0 1.0 0.00 0.00 0.00 86 1011.8
20260901033039 68 311 0.0 1.0 0.00 0.00 0.00 85 1011.8
20260901032539 69 293 0.0 0.0 0.00 0.00 0.00 85 1011.8
20260901032040 69 293 0.0 1.0 0.00 0.00 0.00 84 1011.9
20260901031538 70 290 0.0 1.0 0.00 0.00 0.00 85 1011.8
20260901031040 70 294 0.0 2.0 0.00 0.00 0.00 83 1011.7
20260901030637 70 288 0.0 2.0 0.00 0.00 0.00 82 1011.6
20260901030035 70 295 0.0 1.0 0.00 0.00 0.00 80 1011.5
20260901025536 71 307 0.0 1.0 0.00 0.00 0.00 79 1011.4
20260901025038 71 307 0.0 4.0 0.00 0.00 0.00 78 1011.3
20260901024535 71 304 1.0 4.0 0.00 0.00 0.00 79 1011.3
20260901024035 70 281 2.0 4.0 0.00 0.00 0.00 81 1011.3
20260901023535 70 285 1.0 3.0 0.00 0.00 0.00 84 1011.3
20260901023041 70 263 0.0 1.0 0.00 0.00 0.00 82 1011.3
20260901022534 70 305 0.0 3.0 0.00 0.00 0.00 82 1011.5
20260901022033 70 267 0.0 3.0 0.00 0.00 0.00 82 1011.4
20260901021535 70 280 1.0 3.0 0.00 0.00 0.00 83 1011.4
20260901021035 70 297 0.0 1.0 0.00 0.00 0.00 81 1011.3
20260901020533 71 297 0.0 1.0 0.00 0.00 0.00 81 1011.2
20260901020031 71 298 0.0 0.0 0.00 0.00 0.00 80 1011.2
20260901015533 71 298 0.0 0.0 0.00 0.00 0.00 78 1011.2
20260901015031 72 298 0.0 0.0 0.00 0.00 0.00 77 1011.2
20260901014530 72 298 0.0 0.0 0.00 0.00 0.00 77 1011.2
20260901014030 72 298 0.0 0.0 0.00 0.00 0.00 75 1011.1
20260901013530 72 298 0.0 1.0 0.00 0.00 0.00 74 1011.0
20260901013030 72 299 0.0 1.0 0.00 0.00 0.00 73 1011.0
20260901012528 72 283 0.0 1.0 0.00 0.00 0.00 73 1010.9
20260901012027 73 269 0.0 1.0 0.00 0.00 0.00 73 1010.9
20260901011527 73 283 0.0 0.0 0.00 0.00 0.00 73 1010.9
20260901011027 73 282 0.0 0.0 0.00 0.00 0.00 72 1010.8
20260901010527 74 282 0.0 0.0 0.00 0.00 0.00 71 1010.8
20260901010026 75 282 0.0 0.0 0.00 0.00 0.00 70 1010.8
20260901005526 76 282 0.0 0.0 0.00 0.00 0.00 69 1010.7
20260901005026 77 283 0.0 0.0 0.00 0.00 0.00 68 1010.7
20260901004525 78 303 0.0 0.0 0.00 0.00 0.00 67 1010.6
20260901004025 78 304 0.0 2.0 0.00 0.00 0.00 66 1010.6
20260901003528 79 303 0.0 5.0 0.00 0.00 0.00 64 1010.6
20260901003026 79 315 2.0 6.0 0.00 0.00 0.00 62 1010.6
20260901002525 80 294 3.0 6.0 0.00 0.00 0.00 60 1010.6
20260901002024 80 290 3.0 5.0 0.00 0.00 0.00 59 1010.7
20260901001524 81 307 1.0 4.0 0.00 0.00 0.00 60 1010.7